[[{"header":{"parameterUnit":"m.s-1","parameterCategory":1,"la1":30.2991,"la2":30.254,"lo1":-89.0895,"lo2":-89.0444,"dy":0.0017,"dx":0.0017,"nx":28,"ny":28,"refTime":"2025-06-09T09:00:00:Z","depth":0,"parameterNumber":2,"parameterNumberName":"U-component_of_WINDS"},"data":[0,0,0,0,0,0,0,0,0,0,0,0,0,0,0,0,0,0,0,0,0,0,0,0,0,0,0,0,0,0,0,0,0,0,0,0,0,0,0,0,0,0,0,0,0,0,0,0,0,0,0,0,0,0,0,0,0,0,6.327,6.327,0,6.3197,6.3196,6.3196,6.3062,6.3059,6.3056,6.3054,6.2978,6.2979,6.2979,0,0,0,0,0,0,0,0,0,0,0,0,0,6.3296,6.3296,6.327,6.3269,6.3269,6.3197,6.3196,6.3195,6.3062,6.3059,6.3056,6.3053,6.2978,6.2979,6.2979,0,0,0,0,0,0,0,0,0,0,0,0,0,6.326,6.3296,6.3271,6.3193,6.3186,6.3198,6.3196,6.3195,6.3063,6.3059,6.3055,6.3051,6.2978,6.2979,6.2979,6.306,0,0,6.2981,6.2981,0,0,0,0,0,0,0,0,6.3262,6.3259,6.3206,6.3199,6.319,6.3135,6.3177,6.315,6.3064,6.3109,6.3054,6.3049,6.3033,6.3029,6.3024,6.3056,6.3053,6.2981,6.2981,6.2982,6.2982,0,0,0,0,0,0,0,6.3265,6.3262,6.3241,6.3205,6.3196,6.3163,6.3154,6.3172,6.3094,6.3105,6.3095,6.3088,6.3028,6.3024,6.3021,6.3052,6.2981,6.2981,6.2982,6.2982,6.3147,6.3151,0,0,0,0,0,0,6.3279,6.3265,6.3244,6.3239,6.3218,6.3166,6.3155,6.3156,6.3093,6.308,6.3092,6.3083,6.3025,6.3021,6.3018,6.3107,6.2982,6.2982,6.2982,6.3143,6.3148,6.3153,0,0,0,0,0,0,6.328,6.3278,6.3247,6.3249,6.3243,6.3169,6.3172,6.3157,6.3152,6.3083,6.3069,6.3101,6.3021,6.3017,6.3051,6.3102,6.2982,6.2983,6.3139,6.3145,6.315,6.3286,0,0,0,0,0,0,6.3281,6.3279,6.3308,6.3251,6.3243,6.328,6.3175,6.3158,6.3153,6.314,6.3088,6.3076,6.3018,6.305,6.3051,6.3101,6.2983,6.3133,6.3141,6.3149,6.3277,6.3296,6.3313,0,0,0,0,0,6.3282,6.3349,6.3311,6.3309,6.3278,6.3283,6.3279,6.3211,6.3158,6.3187,6.3144,6.3077,6.3098,6.3055,6.3055,6.3105,6.313,6.3139,6.3148,6.3268,6.3292,6.3312,0,0,0,0,0,0,6.3414,6.334,6.3296,6.3347,6.3323,6.3261,6.3294,6.3239,6.3229,6.3217,6.3134,6.3123,6.3167,6.314,6.3094,6.3181,6.3104,6.3113,6.3195,6.3217,6.3235,6.3238,6.2984,0,0,0,0,0,6.3449,6.3459,6.3395,6.3446,6.3436,6.3369,6.3368,6.3319,6.329,6.3279,6.3237,6.3212,6.3212,6.3214,6.3211,6.3274,6.326,6.3309,6.3328,6.3343,6.335,6.3381,6.3401,6.3183,6.3182,6.3182,0,0,6.3521,6.3482,6.3493,6.3471,6.3446,6.3459,6.336,6.3377,6.3385,6.3281,6.3309,6.3279,6.3246,6.3294,6.3313,6.3273,6.3409,6.3354,6.3367,6.3366,6.3392,6.3413,6.3431,6.3189,6.3188,6.3187,0,0,6.3657,6.363,6.3668,6.3647,6.3611,6.3566,6.3577,6.3524,6.35,6.3528,6.3449,6.3459,6.3462,6.3441,6.3431,6.3565,6.3503,6.3567,6.3659,6.369,6.3707,6.3721,6.3766,6.3784,6.3576,6.3576,6.3576,0,6.375,6.3765,6.3696,6.3718,6.371,6.3619,6.3657,6.364,6.3605,6.3602,6.3558,6.3561,6.3532,6.3574,6.3607,6.3603,6.361,6.3569,6.371,6.3724,6.3737,6.3778,6.3796,6.3584,6.3583,6.3582,6.3581,0,6.3881,6.3893,6.3929,6.3898,6.3895,6.3926,6.3861,6.3867,6.382,6.3781,6.381,6.3774,6.3761,6.3769,6.3722,6.3804,6.378,6.3725,6.3645,6.3766,6.3804,6.382,6.3595,6.3592,6.359,6.3588,0,0,6.4092,6.4025,6.4039,6.4024,6.398,6.3988,6.4017,6.4005,6.401,6.3992,6.4012,6.4019,6.3968,6.3957,6.3908,6.3936,6.4041,6.3877,6.3875,6.3905,6.4127,6.4166,6.4185,6.4003,6.4006,6.4008,6.4129,0,6.4215,6.4257,6.4197,6.4252,6.4262,6.4178,6.4202,6.4178,6.4143,6.4147,6.4109,6.4114,6.4048,6.404,6.4065,6.4024,6.4084,6.4015,6.4018,6.4019,6.4024,6.4205,6.4245,6.436,6.4144,6.4146,6.4148,0,6.4363,6.4352,6.4408,6.4362,6.4364,6.4386,6.4371,6.4377,6.4349,6.4322,6.4312,6.4255,6.4279,6.4207,6.4238,6.4192,6.4192,6.4172,6.4175,6.4168,6.4087,6.4199,6.4396,6.4412,6.4171,6.4169,6.4167,0,6.4507,6.4507,6.454,6.4531,6.4478,6.4496,6.4475,6.4444,6.4441,6.443,6.4427,6.4419,6.4413,6.4408,6.4351,6.4304,6.4389,6.4312,6.4365,6.4367,6.4381,6.438,6.4576,6.439,6.439,6.439,6.4389,0,6.4648,6.4685,6.4604,6.4624,6.4663,6.4596,6.4637,6.4608,6.4581,6.4594,6.4523,6.4537,6.4463,6.4469,6.4425,6.4456,6.4456,6.4433,6.442,6.4436,6.4439,6.443,6.4419,6.4394,6.4393,6.4392,6.4392,0,6.4813,6.476,6.479,6.474,6.4729,6.476,6.4716,6.4733,6.4696,6.4713,6.4713,6.4655,6.4658,6.4602,6.4595,6.4566,6.4616,6.4591,6.4624,6.4615,6.467,6.4664,6.4862,6.4884,6.4689,6.4691,6.4693,0,6.4904,6.493,6.4883,6.4887,6.487,6.4877,6.4874,6.4811,6.4811,6.4783,6.4803,6.4802,6.4796,6.4807,6.4763,6.4757,6.4729,6.4799,6.4727,6.4743,6.4725,6.4722,6.4723,6.4812,6.4815,6.4817,6.4819,0,6.5069,6.5043,6.5042,6.5033,6.5032,6.5021,6.5006,6.5014,6.4945,6.4949,6.4952,6.4948,6.4942,6.4941,6.4928,6.4906,6.485,6.4843,6.4854,6.4868,6.4885,6.4873,6.466,6.4837,6.4835,6.4834,6.4833,6.4832,6.5197,6.5216,6.5186,6.5188,6.517,6.5159,6.5171,6.5137,6.5139,6.5128,6.5092,6.5101,6.5074,6.5051,6.5035,6.5042,6.5007,6.5024,6.5028,6.5032,6.504,6.4889,6.504,6.5039,6.5039,6.5038,6.5038,0,6.5355,6.5333,6.5335,6.5317,6.5319,6.527,6.5251,6.5255,6.5264,6.5245,6.5242,6.5246,6.5245,6.5204,6.5198,6.5211,6.5185,6.5211,6.5206,6.5202,6.5073,6.5062,6.5232,6.5232,6.5232,6.5232,6.5232,6.5232,6.5437,6.5467,6.5438,6.5458,6.5436,6.5444,6.5438,6.5427,6.541,6.5418,6.5417,6.5391,6.5362,6.5354,6.5352,6.5339,6.5339,6.5372,6.5351,6.523,6.5211,6.5193,6.5182,6.5374,6.5374,6.5478,6.5479,6.548]},{"header":{"parameterUnit":"m.s-1","parameterCategory":1,"la1":30.2991,"la2":30.254,"lo1":-89.0895,"lo2":-89.0444,"dy":0.0017,"dx":0.0017,"nx":28,"ny":28,"refTime":"2025-06-09T09:00:00:Z","depth":0,"parameterNumber":3,"parameterNumberName":"V-component_of_WINDS"},"data":[0,0,0,0,0,0,0,0,0,0,0,0,0,0,0,0,0,0,0,0,0,0,0,0,0,0,0,0,0,0,0,0,0,0,0,0,0,0,0,0,0,0,0,0,0,0,0,0,0,0,0,0,0,0,0,0,0,0,7.7216,7.7221,0,7.7757,7.7764,7.777,7.7873,7.7869,7.7865,7.7861,7.8409,7.8427,7.8446,0,0,0,0,0,0,0,0,0,0,0,0,0,7.6256,7.6273,7.7215,7.7222,7.7229,7.7756,7.7764,7.7771,7.7874,7.7869,7.7864,7.7859,7.8403,7.8425,7.8447,0,0,0,0,0,0,0,0,0,0,0,0,0,7.6722,7.6278,7.7214,7.7344,7.7361,7.7755,7.7764,7.7773,7.7875,7.7869,7.7862,7.7856,7.8396,7.8423,7.8451,7.8752,0,0,7.8536,7.8548,0,0,0,0,0,0,0,0,7.6696,7.6757,7.7318,7.7335,7.7355,7.7741,7.7627,7.8101,7.7877,7.768,7.7861,7.7853,7.8192,7.8236,7.8352,7.8777,7.8801,7.8538,7.8555,7.8567,7.8575,0,0,0,0,0,0,0,7.6663,7.6734,7.7429,7.7326,7.7349,7.737,7.743,7.7717,7.7965,7.7696,7.7705,7.7768,7.8201,7.8325,7.8365,7.8809,7.8537,7.8562,7.858,7.859,7.9497,7.9504,0,0,0,0,0,0,7.6609,7.6707,7.7412,7.7446,7.7003,7.7393,7.7459,7.7624,7.7962,7.8008,7.7773,7.7771,7.828,7.8333,7.8385,7.8755,7.8567,7.8593,7.8609,7.949,7.9499,7.9507,0,0,0,0,0,0,7.6588,7.6671,7.739,7.7079,7.7172,7.7416,7.76,7.7638,7.7762,7.8021,7.8064,7.7855,7.8277,7.8346,7.8658,7.8775,7.8606,7.8631,7.9482,7.9493,7.9503,7.9498,0,0,0,0,0,0,7.656,7.6663,7.6784,7.7081,7.7188,7.7659,7.7608,7.7653,7.7811,7.7813,7.8109,7.8152,7.8277,7.8616,7.8686,7.881,7.8653,7.9472,7.9487,7.95,7.9489,7.9508,7.9524,0,0,0,0,0,7.6526,7.6762,7.679,7.6874,7.7345,7.7666,7.7727,7.7869,7.782,7.7941,7.8104,7.8142,7.875,7.8647,7.8726,7.8861,7.9465,7.9483,7.9499,7.9481,7.9504,7.9523,0,0,0,0,0,0,7.6473,7.6804,7.6838,7.7179,7.7393,7.7682,7.784,7.7889,7.8121,7.8113,7.8276,7.8342,7.8643,7.8784,7.8662,7.9165,7.9104,7.9137,7.9064,7.9087,7.9104,7.9064,7.8676,0,0,0,0,0,7.6501,7.6736,7.7011,7.7284,7.739,7.7595,7.7741,7.783,7.8058,7.8149,7.8337,7.8554,7.8793,7.8948,7.9183,7.9508,7.957,7.9639,7.9656,7.9669,7.9696,7.987,7.9902,7.9561,7.9561,7.9561,0,0,7.6562,7.6771,7.691,7.7279,7.7456,7.7691,7.7672,7.7924,7.8099,7.8187,7.8493,7.8636,7.8889,7.9206,7.9356,7.9333,7.9803,7.969,7.9699,7.9719,7.9891,7.9923,7.9951,7.9573,7.9571,7.9569,0,0,7.6792,7.6976,7.7221,7.7396,7.7663,7.7797,7.7854,7.8136,7.8234,7.8543,7.8612,7.8819,7.923,7.9405,7.9547,7.983,7.9871,7.9901,7.9993,8.0161,8.0188,8.0212,8.0309,8.0342,7.9927,7.9927,7.9927,0,7.6833,7.7195,7.734,7.7587,7.7744,7.7832,7.8077,7.824,7.8569,7.8673,7.8641,7.9153,7.9329,7.9685,7.9753,7.9867,7.9933,7.9871,8.0172,8.0199,8.0223,8.0317,8.0354,7.9929,7.9929,7.9929,7.9929,0,7.7229,7.7477,7.7641,7.7956,7.813,7.8375,7.8552,7.871,7.8781,7.8915,7.9223,7.9437,7.9713,7.9803,7.9877,8.0167,8.0144,8.014,8.0083,8.0255,8.0346,8.0383,7.9932,7.9931,7.993,7.993,0,0,7.745,7.7833,7.7891,7.8031,7.8327,7.852,7.8763,7.9033,7.9163,7.9384,7.9589,7.9929,7.9925,8.0086,8.0178,8.0325,8.0528,8.0304,8.0312,8.0335,8.0855,8.0855,8.0895,8.0556,8.0563,8.0569,8.0832,0,7.7713,7.8155,7.8287,7.8657,7.8883,7.8965,7.9176,7.9377,7.9506,7.9713,7.9854,8.0091,8.0071,8.0167,8.0317,8.0472,8.0635,8.0455,8.0744,8.0753,8.0679,8.0943,8.0947,8.1185,8.0869,8.0875,8.088,0,7.8083,7.8307,7.8699,7.8957,7.9057,7.9246,7.9498,7.9697,7.9922,8.0005,8.018,8.0257,8.0508,8.0433,8.0777,8.0651,8.0776,8.0868,8.0881,8.0914,8.0827,8.0981,8.1266,8.13,8.0938,8.0933,8.0929,0,7.8198,7.8599,7.8883,7.9001,7.9311,7.9439,7.9574,7.9794,7.9944,8.0163,8.0261,8.0506,8.064,8.0824,8.0962,8.0896,8.1292,8.1231,8.1364,8.136,8.1446,8.1439,8.1752,8.1526,8.1526,8.1525,8.1524,0,7.8479,7.8714,7.8938,7.9113,7.9376,7.9521,7.9776,7.9913,8.0106,8.0304,8.0389,8.0572,8.0744,8.0948,8.1057,8.1321,8.1381,8.1452,8.1478,8.1445,8.1435,8.1529,8.1516,8.1535,8.1533,8.1531,8.1529,0,7.8655,7.8816,7.913,7.9394,7.9466,7.9647,7.9872,8.0041,8.0169,8.0418,8.0485,8.0686,8.093,8.1085,8.1396,8.1468,8.1757,8.1779,8.1681,8.1694,8.1817,8.1802,8.2203,8.226,8.1995,8.1998,8.2,0,7.8824,7.9006,7.9288,7.9427,7.9562,7.9786,7.9939,8.0085,8.024,8.0504,8.064,8.0889,8.1097,8.148,8.1652,8.1887,8.1914,8.2037,8.195,8.1908,8.1912,8.19,8.1916,8.2052,8.2054,8.2056,8.2057,0,7.9105,7.9172,7.9391,7.9634,7.9813,8.0012,8.0211,8.0318,8.0497,8.0665,8.0916,8.1076,8.139,8.1634,8.1883,8.2016,8.2065,8.2082,8.2125,8.2094,8.2029,8.2062,8.1719,8.2074,8.2072,8.2071,8.207,8.2069,7.9282,7.9444,7.9666,7.9903,8.0066,8.0247,8.0417,8.0564,8.0776,8.1045,8.1116,8.1375,8.1587,8.1926,8.2063,8.2264,8.2248,8.2311,8.2327,8.234,8.234,8.1995,8.231,8.231,8.231,8.231,8.2309,0,7.9564,7.9708,7.9925,8.0198,8.0382,8.0411,8.0629,8.078,8.1008,8.1202,8.1402,8.1685,8.1919,8.2105,8.2345,8.247,8.2497,8.2527,8.252,8.2548,8.2343,8.2281,8.25,8.25,8.25,8.25,8.25,8.25,7.9732,8.0007,8.0099,8.0452,8.0594,8.085,8.0971,8.1136,8.129,8.1602,8.1798,8.1917,8.2106,8.2358,8.2572,8.262,8.2703,8.2728,8.278,8.2585,8.2564,8.2544,8.2486,8.2745,8.2745,8.2969,8.2971,8.2972]}]]